Location: Ambalanirana
(18.9915°S, 47.6322°E)
Time: 09:38:03
(UTC+00:00)

Daily predictions for brighter satellites

Satellite Brightness Start Highest point End
(mag) Time Altitude Azimuth Time Altitude Azimuth Time Altitude Azimuth
STARLINK-1042 3.7 14:35:54 10° NNW 14:40:00 69° NE 14:44:10 10° SE
Cosmos 2173 Rocket 4.1 14:34:38 10° N 14:40:52 65° E 14:47:02 10° SSE
Envisat 3.3 14:38:08 10° SSE 14:43:06 50° E 14:48:00 10° N
Cosmos 1459 Rocket 4.0 14:37:41 10° N 14:43:46 68° E 14:50:01 10° S
Cosmos 2061 Rocket 4.4 14:38:52 10° NNE 14:44:44 43° E 14:50:36 10° SSE
STARLINK-1056 3.6 14:40:51 10° NNW 14:45:00 80° NE 14:49:10 10° SE
CZ-4B R/B 3.4 14:39:26 10° S 14:45:01 84° WSW 14:50:38 10° NNW
SL-16 R/B 2.3 14:39:32 10° NNW 14:45:13 89° W 14:50:57 10° SSE
STARLINK-60 3.2 14:44:41 10° SSW 14:47:48 47° SE 14:50:54 10° NE
Milstar 3 4.2 14:38:56 10° WSW 14:47:55 66° SSE 15:05:34 10° E
Okean O Rocket 2.0 14:43:50 10° S 14:48:17 71° WSW 14:52:42 10° NNW
Centaur D-1AR AC-39 2.7 14:45:08 10° NW 14:48:22 39° NNE 14:54:27 10° E
ADEOS Rocket 4.3 14:41:40 10° N 14:48:48 58° W 14:56:27 10° SSW
Cosmos 1048 Rocket 4.0 14:44:00 10° N 14:49:04 62° ENE 14:54:08 10° SSE
Cosmos 1933 Rocket 3.6 14:45:17 10° N 14:49:32 59° E 14:53:51 10° SSE
STARLINK-1054 3.6 14:45:48 10° NW 14:49:56 89° SW 14:54:08 10° SE
Helios 1A Rocket 3.4 14:48:09 10° SSE 14:51:59 40° E 14:55:48 10° N
STARLINK-1062 3.7 14:50:48 10° NW 14:54:56 78° SW 14:59:07 10° SSE
Meteor 1-27 Rocket 3.9 14:50:54 10° S 14:56:53 87° E 15:02:49 10° N
Cosmos 1461 3.2 14:54:53 10° S 14:58:28 35° ESE 15:02:01 10° NE
AQUARIUS 4.1 14:54:54 10° SSE 14:59:27 78° ENE 15:03:55 10° N
STARLINK-1053 3.9 14:55:48 10° NW 14:59:54 67° SW 15:04:04 10° SSE
Longmarch 3A Rocket 4.1 14:30:21 10° WNW 15:01:59 61° SSW 15:06:23 14° ESE
Feng Yun 1-1 Rocket 4.5 14:56:54 10° SSE 15:02:13 49° ENE 15:07:34 10° N
STARLINK-1061 4.1 15:00:48 10° NW 15:04:52 58° SW 15:08:59 10° SSE
STARLINK-1065 4.2 15:01:25 10° NW 15:05:28 56° SW 15:09:35 10° SSE
Cosmos 1624 Rocket 3.9 15:01:33 10° S 15:06:49 76° ESE 15:12:05 10° NNE
Cosmos 2278 Rocket 2.1 15:01:10 10° SSW 15:06:50 71° ESE 15:12:27 10° NNE
BREEZE-M DEB (TANK) 4.1 15:06:35 10° WNW 15:09:17 53° SW 15:15:37 10° SE
CZ-3C R/B 0.4 15:07:15 10° W 15:09:22 88° S 15:14:22 13° E
STARLINK-1067 4.4 15:05:50 10° NW 15:09:51 50° SW 15:13:54 10° SSE
Cosmos 1943 4.2 15:07:35 10° NNE 15:12:02 25° ENE 15:14:36 18° ESE
Cosmos 1603 4.3 15:10:36 10° NNE 15:15:48 36° ENE 15:19:38 17° SE
STARLINK-29 3.4 15:14:24 10° SSW 15:17:31 39° SE 15:19:11 22° ENE
Delta 7925 Rocket 3.8 15:12:34 10° WNW 15:18:45 61° NNE 15:22:03 22° E
Cosmos 1500 4.3 15:17:35 10° NE 15:20:41 24° E 15:20:41 24° E
Cosmos 1725 Rocket 3.9 15:14:30 10° N 15:20:43 75° E 15:27:02 10° S
Cosmos 1269 Rocket 4.3 15:18:02 10° N 15:23:02 45° E 15:26:36 18° SE
Atlas Centaur 2 3.7 15:22:19 10° NNW 15:29:24 40° NE 15:34:14 22° E
Cosmos 371 Rocket 3.8 15:25:01 10° S 15:29:26 34° ESE 15:33:48 10° NE
OAO 3 Rocket 3.8 15:26:34 10° NW 15:31:15 43° NE 15:33:14 29° E
STARLINK-1147 4.5 15:30:57 10° N 15:34:02 27° NE 15:34:02 27° NE
Atlas 2A Centaur Rocket 2.9 15:33:12 10° SW 15:34:52 22° S 15:34:52 22° S
Cosmos 44 4.1 15:32:18 10° N 15:37:02 36° ENE 15:38:05 32° E
Cosmos 405 Rocket 3.0 15:34:30 10° NNE 15:37:58 42° E 15:37:58 42° E
Okean-O 2.5 15:35:18 21° SSE 15:38:13 66° E 15:42:36 10° N
STARLINK-1185 4.3 15:35:55 10° N 15:39:00 31° NE 15:39:00 31° NE
NOSS 2-2 (D) 3.8 15:33:27 10° SSW 15:39:39 79° ESE 15:44:09 10° NNE
SL-4 R/B 3.7 15:37:02 10° WSW 15:40:41 35° NW 15:44:35 10° NNE
FengYun 1-2 T 4.3 15:35:08 10° S 15:40:43 83° WSW 15:46:19 10° NNW
STARLINK-1186 4.2 15:38:28 10° N 15:41:31 33° NE 15:41:31 33° NE
Okean 1-7 3.4 15:43:02 42° E 15:43:02 42° E 15:46:42 10° NNE
Fermi 4.5 15:38:35 10° W 15:42:37 50° NNW 15:44:37 26° NE
Aurora 2 Rocket 4.5 15:33:20 10° WNW 15:44:22 87° NNE 15:49:30 32° ESE
STARLINK-1176 3.9 15:43:25 10° NNW 15:47:02 45° NE 15:47:02 45° NE
STARLINK-1196 4.1 15:43:47 10° NNW 15:46:48 38° NE 15:46:48 38° NE
Cosmos 2233 Rocket 3.9 15:42:51 10° N 15:49:06 81° E 15:55:27 10° S
Cosmos 1184 Rocket 2.8 15:45:56 10° N 15:48:48 69° N 15:48:48 69° N
GPS 2-17 Rocket1 3.0 15:45:55 10° W 15:50:42 75° S 15:51:30 58° ESE
YAOGAN 1 2.9 15:51:54 45° NE 15:51:54 45° NE 15:55:31 10° N
STARLINK-52 3.5 15:50:09 10° SW 15:52:50 54° WSW 15:52:50 54° WSW
Meteor 1-19 Rocket 4.1 15:49:19 10° S 15:54:43 61° E 16:00:08 10° NNE
STARLINK-1179 3.8 15:50:58 10° NNW 15:54:25 54° NNE 15:54:25 54° NNE
STARLINK-1181 4.0 15:52:03 10° NNW 15:54:56 44° NNE 15:54:56 44° NNE
FUSE 4.2 15:51:16 10° WSW 15:56:29 50° S 15:57:04 48° SSE
Meteosat 1 Rocket2 4.3 15:50:19 10° W 15:56:50 39° SSW 15:58:03 35° SSE
STARLINK-1183 4.1 15:54:46 10° NNW 15:57:35 44° N 15:57:35 44° N
Centaur D-1AR AC-38 4.3 15:44:14 10° W 16:00:58 85° NNW 16:02:45 45° ENE
Meteor 1-5 Rocket 4.2 15:57:59 10° N 16:03:50 89° ENE 16:07:23 26° S
Tsikada Rocket 3.9 15:58:13 10° S 16:04:35 75° E 16:10:48 10° N
STARLINK-1194 4.4 16:03:18 10° NNW 16:05:52 42° NNW 16:05:52 42° NNW
STARLINK-1193 4.5 16:06:04 10° NW 16:08:33 40° NNW 16:08:33 40° NNW
Cosmos 2297 4.3 16:05:22 10° S 16:18:02 - NNE 16:09:05 41° S
STARLINK-1173 4.4 16:07:57 10° NW 16:10:46 46° NW 16:10:46 46° NW
Cosmos 1939 Rocket 3.5 16:13:39 53° W 16:13:39 53° W 16:17:27 10° NNW
Okean 1 4.2 16:12:42 35° SW 16:13:55 48° W 16:17:48 10° NNW
Cosmos 1452 Rocket 4.0 16:15:59 10° SSW 16:21:11 60° WNW 16:26:21 10° N
CSL-04 Debris 4.3 16:22:32 62° N 16:22:32 62° N 16:26:59 10° N
Geosat 4.1 16:23:35 72° NW 16:23:35 72° NW 16:28:06 10° NNW
CZ-4 R/B 2.8 16:25:41 37° W 16:25:41 37° W 16:29:27 10° NW
Meteor 2-11 Rocket 4.3 16:22:09 10° N 16:28:10 88° WNW 16:28:10 88° WNW
CZ-2C R/B 3.6 16:33:24 10° N 16:37:03 41° NNW 16:37:03 41° NNW
BREEZE M DEB (TANK) 4.4 16:49:36 10° NW 16:59:12 48° NNW 16:59:12 48° NNW
Atlas Centaur 2 3.6 17:10:51 10° WNW 17:16:50 53° W 17:16:50 53° W
